Time,TemperatureF,DewpointF,PressureIn,WindDirection,WindDirectionDegrees,WindSpeedMPH,WindSpeedGustMPH,Humidity,HourlyPrecipIn,Conditions,Clouds,dailyrainin,SolarRadiationWatts/m^2,SoftwareType,DateUTC
2013-08-08 00:01:00,55.0,54.0,-100.00,West,261,4.0,15.0,96,0.04,,,0.38,0.000000,,2013-08-08 06:01:00,
2013-08-08 00:11:00,55.0,54.0,-100.00,West,261,4.0,15.0,96,0.04,,,0.38,0.000000,,2013-08-08 06:11:00,
2013-08-08 00:32:00,59.0,52.0,-100.00,SSW,211,7.0,20.0,78,0.01,,,0.39,0.000000,,2013-08-08 06:32:00,
2013-08-08 00:43:00,59.0,52.0,-100.00,SSW,211,7.0,20.0,78,0.01,,,0.39,0.000000,,2013-08-08 06:43:00,
2013-08-08 00:52:00,59.0,52.0,-100.00,SSW,211,7.0,20.0,78,0.01,,,0.39,0.000000,,2013-08-08 06:52:00,
2013-08-08 01:01:00,59.0,52.0,-100.00,SSW,211,7.0,20.0,78,0.01,,,0.39,0.000000,,2013-08-08 07:01:00,
2013-08-08 01:12:00,59.0,52.0,-100.00,SSW,211,7.0,20.0,78,0.01,,,0.39,0.000000,,2013-08-08 07:12:00,
2013-08-08 01:32:00,58.0,53.0,-100.00,SSW,198,7.0,10.0,82,0.00,,,0.39,0.000000,,2013-08-08 07:32:00,
2013-08-08 01:43:00,58.0,53.0,-100.00,SSW,198,7.0,10.0,82,0.00,,,0.39,0.000000,,2013-08-08 07:43:00,
2013-08-08 01:53:00,58.0,53.0,-100.00,SSW,198,7.0,10.0,82,0.00,,,0.39,0.000000,,2013-08-08 07:53:00,
2013-08-08 02:02:00,58.0,53.0,-100.00,SSW,198,7.0,10.0,82,0.00,,,0.39,0.000000,,2013-08-08 08:02:00,
2013-08-08 02:11:00,58.0,53.0,-100.00,SSW,198,7.0,10.0,82,0.00,,,0.39,0.000000,,2013-08-08 08:11:00,
2013-08-08 02:32:00,59.0,52.0,-100.00,SW,224,6.0,15.0,77,0.00,,,0.39,0.000000,,2013-08-08 08:32:00,
2013-08-08 02:43:00,59.0,52.0,-100.00,SW,224,6.0,15.0,77,0.00,,,0.39,0.000000,,2013-08-08 08:43:00,
2013-08-08 02:53:00,59.0,52.0,-100.00,SW,224,6.0,15.0,77,0.00,,,0.39,0.000000,,2013-08-08 08:53:00,
2013-08-08 03:01:00,59.0,52.0,-100.00,SW,224,6.0,15.0,77,0.00,,,0.39,0.000000,,2013-08-08 09:01:00,
2013-08-08 03:12:00,59.0,52.0,-100.00,SW,224,6.0,15.0,77,0.00,,,0.39,0.000000,,2013-08-08 09:12:00,
2013-08-08 03:32:00,61.0,50.0,-100.00,WSW,251,8.0,12.0,67,0.00,,,0.39,0.000000,,2013-08-08 09:32:00,
2013-08-08 03:43:00,61.0,50.0,-100.00,WSW,251,8.0,12.0,67,0.00,,,0.39,0.000000,,2013-08-08 09:43:00,
2013-08-08 03:53:00,61.0,50.0,-100.00,WSW,251,8.0,12.0,67,0.00,,,0.39,0.000000,,2013-08-08 09:53:00,
2013-08-08 04:01:00,61.0,50.0,-100.00,WSW,251,8.0,12.0,67,0.00,,,0.39,0.000000,,2013-08-08 10:01:00,
2013-08-08 04:12:00,61.0,50.0,-100.00,WSW,251,8.0,12.0,67,0.00,,,0.39,0.000000,,2013-08-08 10:12:00,
2013-08-08 04:33:00,62.0,48.0,-100.00,West,273,7.0,12.0,60,0.00,,,0.39,0.000000,,2013-08-08 10:33:00,
2013-08-08 04:43:00,62.0,48.0,-100.00,West,273,7.0,12.0,60,0.00,,,0.39,0.000000,,2013-08-08 10:43:00,
2013-08-08 04:52:00,62.0,48.0,-100.00,West,273,7.0,12.0,60,0.00,,,0.39,0.000000,,2013-08-08 10:52:00,
2013-08-08 05:02:00,62.0,48.0,-100.00,West,273,7.0,12.0,60,0.00,,,0.39,0.000000,,2013-08-08 11:02:00,
2013-08-08 05:11:00,62.0,48.0,-100.00,West,273,7.0,12.0,60,0.00,,,0.39,0.000000,,2013-08-08 11:11:00,
2013-08-08 05:32:00,62.0,48.0,-100.00,WNW,294,4.0,10.0,60,0.00,,,0.39,0.000000,,2013-08-08 11:32:00,
2013-08-08 05:43:00,62.0,48.0,-100.00,WNW,294,4.0,10.0,60,0.00,,,0.39,0.000000,,2013-08-08 11:43:00,
2013-08-08 05:52:00,62.0,48.0,-100.00,WNW,294,4.0,10.0,60,0.00,,,0.39,0.000000,,2013-08-08 11:52:00,
2013-08-08 06:01:00,62.0,48.0,-100.00,WNW,294,4.0,10.0,60,0.00,,,0.39,0.000000,,2013-08-08 12:01:00,
2013-08-08 06:11:00,62.0,48.0,-100.00,WNW,294,4.0,10.0,60,0.00,,,0.39,0.000000,,2013-08-08 12:11:00,
2013-08-08 06:43:00,61.0,48.0,-100.00,WNW,288,4.0,8.0,62,-99.99,,,0.39,4.000000,,2013-08-08 12:43:00,
2013-08-08 06:53:00,61.0,48.0,-100.00,WNW,288,4.0,8.0,62,-99.99,,,0.39,4.000000,,2013-08-08 12:53:00,
2013-08-08 07:32:00,61.0,53.0,-100.00,NNE,12,4.0,6.0,74,0.00,,,0.39,65.000000,,2013-08-08 13:32:00,
2013-08-08 07:43:00,61.0,53.0,-100.00,NNE,12,4.0,6.0,74,0.00,,,0.39,65.000000,,2013-08-08 13:43:00,
2013-08-08 07:53:00,61.0,53.0,-100.00,NNE,12,4.0,6.0,74,0.00,,,0.39,65.000000,,2013-08-08 13:53:00,
2013-08-08 08:02:00,61.0,53.0,-100.00,NNE,12,4.0,6.0,74,0.00,,,0.39,65.000000,,2013-08-08 14:02:00,
2013-08-08 08:11:00,61.0,53.0,-100.00,NNE,12,4.0,6.0,74,0.00,,,0.39,65.000000,,2013-08-08 14:11:00,
2013-08-08 08:32:00,66.0,53.0,-100.00,North,360,3.0,8.0,64,0.00,,,0.39,253.000000,,2013-08-08 14:32:00,
2013-08-08 08:43:00,66.0,53.0,-100.00,North,360,3.0,8.0,64,0.00,,,0.39,253.000000,,2013-08-08 14:43:00,
2013-08-08 08:53:00,66.0,53.0,-100.00,North,360,3.0,8.0,64,0.00,,,0.39,253.000000,,2013-08-08 14:53:00,
2013-08-08 09:02:00,66.0,53.0,-100.00,North,360,3.0,8.0,64,0.00,,,0.39,253.000000,,2013-08-08 15:02:00,
2013-08-08 09:11:00,66.0,53.0,-100.00,North,360,3.0,8.0,64,0.00,,,0.39,253.000000,,2013-08-08 15:11:00,
2013-08-08 09:43:00,68.0,56.0,-100.00,NE,43,7.0,11.0,66,0.00,,,0.39,441.000000,,2013-08-08 15:43:00,
2013-08-08 09:53:00,68.0,56.0,-100.00,NE,43,7.0,11.0,66,0.00,,,0.39,441.000000,,2013-08-08 15:53:00,
2013-08-08 10:02:00,68.0,56.0,-100.00,NE,43,7.0,11.0,66,0.00,,,0.39,441.000000,,2013-08-08 16:02:00,
2013-08-08 10:11:00,68.0,56.0,-100.00,NE,43,7.0,11.0,66,0.00,,,0.39,441.000000,,2013-08-08 16:11:00,
2013-08-08 10:32:00,71.0,56.0,-100.00,NE,44,7.0,14.0,60,0.00,,,0.39,650.000000,,2013-08-08 16:32:00,
2013-08-08 10:42:00,71.0,56.0,-100.00,NE,44,7.0,14.0,60,0.00,,,0.39,650.000000,,2013-08-08 16:42:00,
2013-08-08 10:52:00,71.0,56.0,-100.00,NE,44,7.0,14.0,60,0.00,,,0.39,650.000000,,2013-08-08 16:52:00,
2013-08-08 11:02:00,71.0,56.0,-100.00,NE,44,7.0,14.0,60,0.00,,,0.39,650.000000,,2013-08-08 17:02:00,
2013-08-08 11:11:00,71.0,56.0,-100.00,NE,44,7.0,14.0,60,0.00,,,0.39,650.000000,,2013-08-08 17:11:00,
2013-08-08 11:32:00,73.0,57.0,-100.00,ENE,68,7.0,13.0,57,0.00,,,0.39,809.000000,,2013-08-08 17:32:00,
2013-08-08 11:43:00,73.0,57.0,-100.00,ENE,68,7.0,13.0,57,0.00,,,0.39,809.000000,,2013-08-08 17:43:00,
2013-08-08 11:52:00,73.0,57.0,-100.00,ENE,68,7.0,13.0,57,0.00,,,0.39,809.000000,,2013-08-08 17:52:00,
2013-08-08 12:01:00,73.0,57.0,-100.00,ENE,68,7.0,13.0,57,0.00,,,0.39,809.000000,,2013-08-08 18:01:00,
2013-08-08 12:11:00,73.0,57.0,-100.00,ENE,68,7.0,13.0,57,0.00,,,0.39,809.000000,,2013-08-08 18:11:00,
2013-08-08 12:32:00,73.0,56.0,-100.00,NE,45,8.0,13.0,56,0.00,,,0.39,953.000000,,2013-08-08 18:32:00,
2013-08-08 12:43:00,73.0,56.0,-100.00,NE,45,8.0,13.0,56,0.00,,,0.39,953.000000,,2013-08-08 18:43:00,
2013-08-08 12:53:00,73.0,56.0,-100.00,NE,45,8.0,13.0,56,0.00,,,0.39,953.000000,,2013-08-08 18:53:00,
2013-08-08 13:01:00,73.0,56.0,-100.00,NE,45,8.0,13.0,56,0.00,,,0.39,953.000000,,2013-08-08 19:01:00,
2013-08-08 13:11:00,73.0,56.0,-100.00,NE,45,8.0,13.0,56,0.00,,,0.39,953.000000,,2013-08-08 19:11:00,
2013-08-08 13:32:00,74.0,58.0,-100.00,NE,50,9.0,17.0,57,0.00,,,0.39,1023.000000,,2013-08-08 19:32:00,
2013-08-08 13:43:00,74.0,58.0,-100.00,NE,50,9.0,17.0,57,0.00,,,0.39,1023.000000,,2013-08-08 19:43:00,
2013-08-08 13:58:00,74.0,58.0,-100.00,NE,50,9.0,17.0,57,0.00,,,0.39,1023.000000,,2013-08-08 19:58:00,
2013-08-08 14:11:00,74.0,58.0,-100.00,NE,50,9.0,17.0,57,0.00,,,0.39,1023.000000,,2013-08-08 20:11:00,
2013-08-08 14:13:00,74.0,57.0,-100.00,NE,37,9.0,17.0,56,0.00,,,0.39,1025.000000,,2013-08-08 20:13:00,
2013-08-08 14:32:00,74.0,57.0,-100.00,NE,37,9.0,17.0,56,0.00,,,0.39,1025.000000,,2013-08-08 20:32:00,
2013-08-08 14:42:00,74.0,57.0,-100.00,NE,37,9.0,17.0,56,0.00,,,0.39,1025.000000,,2013-08-08 20:42:00,
2013-08-08 14:52:00,74.0,57.0,-100.00,NE,37,9.0,17.0,56,0.00,,,0.39,1025.000000,,2013-08-08 20:52:00,
2013-08-08 15:01:00,74.0,57.0,-100.00,NE,37,9.0,17.0,56,0.00,,,0.39,1025.000000,,2013-08-08 21:01:00,
2013-08-08 15:34:00,75.0,58.0,-100.00,NNE,21,9.0,18.0,56,0.00,,,0.39,885.000000,,2013-08-08 21:34:00,
2013-08-08 15:57:00,75.0,58.0,-100.00,NNE,21,9.0,18.0,56,0.00,,,0.39,885.000000,,2013-08-08 21:57:00,
2013-08-08 16:04:00,75.0,58.0,-100.00,NNE,21,9.0,18.0,56,0.00,,,0.39,885.000000,,2013-08-08 22:04:00,
2013-08-08 16:13:00,74.0,57.0,-100.00,NNE,21,10.0,17.0,56,0.00,,,0.39,808.000000,,2013-08-08 22:13:00,
2013-08-08 16:37:00,74.0,57.0,-100.00,NNE,21,10.0,17.0,56,0.00,,,0.39,808.000000,,2013-08-08 22:37:00,
2013-08-08 16:49:00,74.0,57.0,-100.00,NNE,21,10.0,17.0,56,0.00,,,0.39,808.000000,,2013-08-08 22:49:00,
2013-08-08 17:04:00,74.0,57.0,-100.00,NNE,21,10.0,17.0,56,0.00,,,0.39,808.000000,,2013-08-08 23:04:00,
2013-08-08 17:13:00,75.0,58.0,-100.00,NNE,32,9.0,14.0,55,0.00,,,0.39,536.000000,,2013-08-08 23:13:00,
2013-08-08 17:37:00,75.0,58.0,-100.00,NNE,32,9.0,14.0,55,0.00,,,0.39,536.000000,,2013-08-08 23:37:00,
2013-08-08 17:49:00,75.0,58.0,-100.00,NNE,32,9.0,14.0,55,0.00,,,0.39,536.000000,,2013-08-08 23:49:00,
2013-08-08 17:57:00,75.0,58.0,-100.00,NNE,32,9.0,14.0,55,0.00,,,0.39,536.000000,,2013-08-08 23:57:00,
2013-08-08 18:05:00,75.0,58.0,-100.00,NNE,32,9.0,14.0,55,0.00,,,0.39,536.000000,,2013-08-09 00:05:00,
2013-08-08 18:13:00,71.0,57.0,-100.00,NE,41,5.0,15.0,61,0.00,,,0.38,256.000000,,2013-08-09 00:13:00,
2013-08-08 18:35:00,71.0,57.0,-100.00,NE,41,5.0,15.0,61,0.00,,,0.38,256.000000,,2013-08-09 00:35:00,
2013-08-08 18:48:00,71.0,57.0,-100.00,NE,41,5.0,15.0,61,0.00,,,0.38,256.000000,,2013-08-09 00:48:00,
2013-08-08 19:02:00,71.0,57.0,-100.00,NE,41,5.0,15.0,61,0.00,,,0.38,256.000000,,2013-08-09 01:02:00,
2013-08-08 19:37:00,70.0,58.0,-100.00,NE,40,4.0,8.0,66,0.00,,,0.38,89.000000,,2013-08-09 01:37:00,
2013-08-08 19:46:00,70.0,58.0,-100.00,NE,40,4.0,8.0,66,0.00,,,0.38,89.000000,,2013-08-09 01:46:00,
2013-08-08 19:59:00,70.0,58.0,-100.00,NE,40,4.0,8.0,66,0.00,,,0.38,89.000000,,2013-08-09 01:59:00,
2013-08-08 20:12:00,70.0,58.0,-100.00,NE,40,4.0,8.0,66,0.00,,,0.38,89.000000,,2013-08-09 02:12:00,
2013-08-08 20:13:00,67.0,58.0,-100.00,NNE,27,2.0,8.0,73,0.00,,,0.38,23.000000,,2013-08-09 02:13:00,
2013-08-08 20:39:00,67.0,58.0,-100.00,NNE,27,2.0,8.0,73,0.00,,,0.38,23.000000,,2013-08-09 02:39:00,
2013-08-08 20:47:00,67.0,58.0,-100.00,NNE,27,2.0,8.0,73,0.00,,,0.38,23.000000,,2013-08-09 02:47:00,
2013-08-08 20:57:00,67.0,58.0,-100.00,NNE,27,2.0,8.0,73,0.00,,,0.38,23.000000,,2013-08-09 02:57:00,
2013-08-08 21:05:00,67.0,58.0,-100.00,NNE,27,2.0,8.0,73,0.00,,,0.38,23.000000,,2013-08-09 03:05:00,
2013-08-08 21:35:00,65.0,58.0,-100.00,NNE,20,3.0,7.0,78,0.00,,,0.17,0.000000,,2013-08-09 03:35:00,
2013-08-08 21:47:00,65.0,58.0,-100.00,NNE,20,3.0,7.0,78,0.00,,,0.17,0.000000,,2013-08-09 03:47:00,
2013-08-08 21:56:00,65.0,58.0,-100.00,NNE,20,3.0,7.0,78,0.00,,,0.17,0.000000,,2013-08-09 03:56:00,
2013-08-08 22:01:00,65.0,58.0,-100.00,NNE,20,3.0,7.0,78,0.00,,,0.17,0.000000,,2013-08-09 04:01:00,
2013-08-08 22:12:00,65.0,58.0,-100.00,NNE,20,3.0,7.0,78,0.00,,,0.17,0.000000,,2013-08-09 04:12:00,
2013-08-08 22:33:00,64.0,58.0,-100.00,NNW,328,4.0,5.0,80,0.00,,,0.05,0.000000,,2013-08-09 04:33:00,
2013-08-08 22:43:00,64.0,58.0,-100.00,NNW,328,4.0,5.0,80,0.00,,,0.05,0.000000,,2013-08-09 04:43:00,
2013-08-08 22:53:00,64.0,58.0,-100.00,NNW,328,4.0,5.0,80,0.00,,,0.05,0.000000,,2013-08-09 04:53:00,
2013-08-08 23:02:00,64.0,58.0,-100.00,NNW,328,4.0,5.0,80,0.00,,,0.05,0.000000,,2013-08-09 05:02:00,
2013-08-08 23:11:00,64.0,58.0,-100.00,NNW,328,4.0,5.0,80,0.00,,,0.05,0.000000,,2013-08-09 05:11:00,
2013-08-08 23:33:00,64.0,58.0,-100.00,NW,325,1.0,5.0,80,0.00,,,0.01,0.000000,,2013-08-09 05:33:00,
2013-08-08 23:43:00,64.0,58.0,-100.00,NW,325,1.0,5.0,80,0.00,,,0.01,0.000000,,2013-08-09 05:43:00,
2013-08-08 23:52:00,64.0,58.0,-100.00,NW,325,1.0,5.0,80,0.00,,,0.01,0.000000,,2013-08-09 05:52:00,